Location: Asheville, NC
(35.6000°N, 82.5500°W)
Time: 23:44:11
(UTC-04:00)

XW-2F - Pass Details

Date: 08 January 2018
Orbit: 506 x 526 km, 97.5° (Epoch: 25 April)

Event Time Altitude Azimuth Distance (km) Brightness Sun altitude
Rises 18:44:29 0° 200° (SSW) 2,646 ? -14.1°
Reaches altitude 10° 18:47:02 10° 218° (SW) 1,763 ? -14.6°
Maximum altitude 18:49:48 19° 265° (W) 1,290 ? -15.1°
Drops below altitude 10° 18:52:36 10° 312° (NW) 1,772 ? -15.7°
Sets 18:55:11 0° 330° (NNW) 2,665 ? -16.2°
